Weather History for London-Corbin, KY

Change the Weather History Date:

Tuesday, January 14, 2014

  Actual Average Record
Temperature  
Mean Temperature 46 °F 35 °F  
Max Temperature 52 °F 44 °F 69 °F (2007)
Min Temperature 40 °F 26 °F 4 °F (1963)
Degree Days  
Heating Degree Days 19 30  
Month to date heating degree days 451 416  
Since 1 July heating degree days 2058 2068  
Cooling Degree Days 0 0  
Month to date cooling degree days 0 0  
Year to date cooling degree days 0 0  
Moisture  
Dew Point 36 °F    
Average Humidity 67    
Maximum Humidity 96    
Minimum Humidity 38    
Precipitation  
Precipitation 0.17 in 0.11 in 0.97 in (1995)
Month to date precipitation 2.08 1.60  
Year to date precipitation 2.08 1.60  
Sea Level Pressure  
Sea Level Pressure 29.88 in    
Wind  
Wind Speed 7 mph (WSW)    
Max Wind Speed 18 mph    
Max Gust Speed 23 mph    
Visibility 8 miles    
Events Rain    
T = Trace of Precipitation, MM = Missing Value Source: NWS Daily Summary

Daily Weather History Graph

Daily Weather History Graph

Search for Another Location

Airport:

Trip Planner

Search our weather history database for the weather conditions in past years. The results will help you decide how hot, cold, wet, or windy it might be!

Date:

Astronomy

Jan. 14, 2014 Rise Set
Actual Time 7:49 AM EST 5:42 PM EST
Civil Twilight 7:20 AM EST 6:10 PM EST
Nautical Twilight 6:48 AM EST 6:42 PM EST
Astronomical Twilight 6:17 AM EST 7:13 PM EST
Moon 4:45 PM EST (1/14) 6:23 AM EST (1/14)
Length of Visible Light 10h 49m
Length of Day
9h 52m
Waxing Gibbous, 98% of the Moon is Illuminated
Jan 14
Waxing Gibbous
Jan 15
Full
Jan 24
Last Quarter
Jan 30
New
Feb 6
First Quarter

Hourly Weather History & Observations

Time (EST) Temp. Windchill Dew Point Humidity Pressure Visibility Wind Dir Wind Speed Gust Speed Precip Events Conditions
12:53 AM 46.0 °F - 43.0 °F 89% 29.78 in 3.0 mi Calm Calm - 0.02 in Rain Light Rain
1:16 AM 46.0 °F 43.9 °F 43.0 °F 89% 29.78 in 4.0 mi WNW 4.6 mph - 0.02 in Rain Light Rain
1:45 AM 46.0 °F 43.9 °F 43.0 °F 89% 29.78 in 4.0 mi Variable 4.6 mph - 0.04 in Rain Light Rain
1:53 AM 46.0 °F 42.5 °F 43.0 °F 89% 29.80 in 6.0 mi SW 6.9 mph - 0.05 in Rain Light Rain
2:48 AM 46.4 °F 41.9 °F 42.8 °F 87% 29.80 in 10.0 mi West 9.2 mph - 0.04 in   Overcast
2:53 AM 46.0 °F 41.4 °F 43.0 °F 89% 29.81 in 10.0 mi WNW 9.2 mph - 0.04 in Rain Light Rain
3:14 AM 46.0 °F 43.1 °F 42.1 °F 86% 29.82 in 10.0 mi WNW 5.8 mph - 0.01 in Rain Light Rain
3:53 AM 45.0 °F 42.6 °F 42.1 °F 90% 29.83 in 7.0 mi WNW 4.6 mph - 0.04 in Rain Light Rain
4:53 AM 44.1 °F 40.8 °F 41.0 °F 89% 29.83 in 10.0 mi SSW 5.8 mph - 0.02 in Rain Light Rain
5:53 AM 43.0 °F - 41.0 °F 93% 29.81 in 5.0 mi Calm Calm - 0.00 in   Overcast
6:05 AM 43.0 °F - 39.9 °F 89% 29.81 in 1.8 mi Calm Calm - N/A   Overcast
6:21 AM 43.0 °F 39.5 °F 41.0 °F 93% 29.85 in 3.0 mi SW 5.8 mph - N/A   Overcast
6:53 AM 43.0 °F - 41.0 °F 93% 29.86 in 10.0 mi Calm Calm - N/A   Scattered Clouds
7:21 AM 41.0 °F - 39.9 °F 96% 29.85 in 1.5 mi Calm Calm - N/A   Scattered Clouds
7:34 AM 41.0 °F 39.0 °F 39.0 °F 93% 29.86 in 3.0 mi SSW 3.5 mph - N/A   Partly Cloudy
7:43 AM 42.1 °F 39.2 °F 39.9 °F 92% 29.87 in 2.0 mi SW 4.6 mph - N/A   Mostly Cloudy
7:53 AM 43.0 °F 40.3 °F 39.9 °F 89% 29.89 in 8.0 mi SW 4.6 mph - N/A   Mostly Cloudy
8:53 AM 42.1 °F 39.2 °F 39.9 °F 92% 29.90 in 8.0 mi WSW 4.6 mph - N/A   Overcast
9:10 AM 43.0 °F 38.8 °F 41.0 °F 93% 29.90 in 10.0 mi WSW 6.9 mph - N/A   Overcast
9:53 AM 43.0 °F 39.5 °F 39.9 °F 89% 29.91 in 9.0 mi WNW 5.8 mph - N/A   Overcast
10:05 AM 43.0 °F 39.5 °F 39.9 °F 89% 29.91 in 9.0 mi West 5.8 mph - N/A   Mostly Cloudy
10:25 AM 44.1 °F 39.5 °F 39.0 °F 82% 29.91 in 10.0 mi West 8.1 mph - N/A   Overcast
10:53 AM 45.0 °F 39.7 °F 39.9 °F 82% 29.93 in 10.0 mi WSW 10.4 mph - N/A   Overcast
11:12 AM 45.0 °F 40.1 °F 37.9 °F 76% 29.92 in 10.0 mi WSW 9.2 mph - N/A   Scattered Clouds
11:53 AM 45.0 °F 37.9 °F 37.0 °F 74% 29.94 in 10.0 mi WSW 16.1 mph - N/A   Mostly Cloudy
12:53 PM 48.0 °F - 32.0 °F 54% 29.90 in 10.0 mi SW 12.7 mph - N/A   Partly Cloudy
1:53 PM 48.9 °F - 30.0 °F 48% 29.88 in 10.0 mi SW 10.4 mph - N/A   Clear
2:53 PM 50.0 °F - 26.1 °F 39% 29.88 in 10.0 mi West 13.8 mph - N/A   Clear
3:53 PM 51.1 °F - 28.0 °F 41% 29.88 in 10.0 mi SSW 6.9 mph - N/A   Clear
4:53 PM 51.1 °F - 27.0 °F 39% 29.87 in 10.0 mi SSW 6.9 mph - N/A   Clear
5:53 PM 48.9 °F - 27.0 °F 43% 29.88 in 10.0 mi South 6.9 mph - N/A   Clear
6:53 PM 46.0 °F 43.1 °F 25.0 °F 44% 29.90 in 10.0 mi South 5.8 mph - N/A   Clear
7:53 PM 45.0 °F 41.8 °F 25.0 °F 46% 29.91 in 10.0 mi South 5.8 mph - N/A   Overcast
8:53 PM 43.0 °F 41.3 °F 26.1 °F 51% 29.91 in 10.0 mi South 3.5 mph - N/A   Mostly Cloudy
9:53 PM 45.0 °F 41.8 °F 27.0 °F 49% 29.91 in 10.0 mi SSW 5.8 mph - N/A   Overcast
10:38 PM 44.1 °F 37.1 °F 33.1 °F 65% 29.93 in 10.0 mi NNW 15.0 mph 23.0 mph N/A   Overcast
10:53 PM 42.1 °F 33.9 °F 34.0 °F 73% 29.95 in 10.0 mi NNW 17.3 mph 23.0 mph N/A   Overcast
11:02 PM 42.1 °F 35.2 °F 34.0 °F 73% 29.95 in 10.0 mi NW 12.7 mph 18.4 mph N/A   Overcast
11:50 PM 39.2 °F 33.0 °F 32.0 °F 75% 29.95 in 10.0 mi WNW 9.2 mph - N/A   Overcast
11:53 PM 39.9 °F 32.9 °F 32.0 °F 73% 29.96 in 10.0 mi WNW 11.5 mph - N/A   Overcast